DW2199 Weather Reports


Display with metric or nautical units.
time (UTC)temp
F
wind
direction
speed
MPH
gust
MPH
rain 1hr
in
rain 24hr
in
rain mn
in
humidity
%
barometer
mb
20260902031502 67 190 0.0 0.0 0.00 0.00 0.00 94 1016.7
20260902030001 67 190 0.0 0.0 0.00 0.00 0.00 94 1016.6
20260902024602 67 190 0.0 1.0 0.00 0.00 0.00 94 1016.6
20260902023110 68 190 0.0 0.0 0.00 0.00 0.00 94 1016.6
20260902021600 68 190 0.0 1.0 0.00 0.00 0.00 93 1016.5
20260902020058 68 190 0.0 2.0 0.00 0.00 0.00 94 1016.5
20260902014557 68 190 0.0 0.0 0.00 0.00 0.00 94 1016.3
20260902013058 68 190 0.0 0.0 0.00 0.00 0.00 94 1016.5
20260902011545 68 190 0.0 0.0 0.00 0.00 0.00 94 1016.3
20260902010044 68 190 0.0 0.0 0.00 0.00 0.00 94 1016.0
20260902004543 68 190 0.0 0.0 0.00 0.00 0.00 94 1016.2
20260902003042 68 190 0.0 0.0 0.00 0.00 0.00 94 1015.9
20260902001556 69 190 0.0 0.0 0.00 0.00 0.00 93 1015.8
20260902000043 69 190 0.0 0.0 0.00 0.00 0.00 93 1015.8
20260901234539 70 190 0.0 0.0 0.00 0.00 0.00 93 1015.8
20260901233039 70 190 0.0 0.0 0.00 0.00 0.00 92 1015.8
20260901231521 70 190 0.0 0.0 0.00 0.00 0.00 91 1015.5
20260901230021 71 190 0.0 0.0 0.00 0.00 0.00 90 1015.5
20260901224508 72 190 0.0 0.0 0.00 0.00 0.00 90 1015.3
20260901223008 72 190 0.0 0.0 0.00 0.00 0.00 90 1015.3
20260901221507 72 190 0.0 0.0 0.00 0.00 0.00 90 1015.1
20260901220010 72 190 0.0 0.0 0.00 0.00 0.00 90 1015.2
20260901214503 72 190 0.0 0.0 0.00 0.00 0.00 90 1015.4
20260901213101 73 190 0.0 0.0 0.00 0.00 0.00 89 1015.4
20260901211554 73 190 0.0 0.0 0.00 0.00 0.00 88 1015.3
20260901210050 72 190 0.0 0.0 0.00 0.00 0.00 89 1015.2
20260901204536 72 190 0.0 1.0 0.00 0.00 0.00 85 1015.0
20260901203036 72 190 0.0 0.0 0.00 0.00 0.00 86 1014.9
20260901201530 72 190 0.0 0.0 0.00 0.00 0.00 90 1015.2
20260901200026 72 190 0.0 1.0 0.00 0.00 0.00 89 1015.2
20260901194524 72 190 0.0 1.0 0.00 0.00 0.00 88 1015.2
20260901193021 72 190 0.0 0.0 0.00 0.00 0.00 89 1015.1
20260901191541 71 190 0.0 0.0 0.00 0.00 0.00 90 1015.1
20260901190018 71 190 0.0 1.0 0.00 0.00 0.00 91 1015.2
20260901184559 71 190 0.0 2.0 0.00 0.00 0.00 91 1015.3
20260901183100 71 190 0.0 1.0 0.00 0.00 0.00 90 1015.3
20260901181542 70 190 0.0 0.0 0.00 0.00 0.00 90 1015.2
20260901180042 70 190 0.0 0.0 0.00 0.00 0.00 91 1015.2
20260901174546 69 190 0.0 1.0 0.00 0.00 0.00 92 1015.2
20260901173049 69 190 0.0 1.0 0.00 0.00 0.00 92 1015.3
20260901171538 69 190 0.0 1.0 0.00 0.00 0.00 93 1015.2
20260901170031 68 190 0.0 0.0 0.00 0.00 0.00 95 1015.3
20260901164539 67 190 0.0 0.0 0.00 0.00 0.00 95 1015.4
20260901163026 67 190 0.0 0.0 0.00 0.00 0.00 95 1015.5
20260901161511 66 190 0.0 1.0 0.00 0.00 0.00 94 1015.7
20260901160006 67 190 0.0 1.0 0.00 0.00 0.00 93 1015.8
20260901154557 67 190 0.0 1.0 0.00 0.00 0.00 94 1015.7
20260901153053 67 203 0.0 1.0 0.00 0.00 0.00 94 1015.5
20260901151546 67 203 0.0 1.0 0.00 0.00 0.00 95 1015.3
20260901150045 67 203 0.0 2.0 0.00 0.00 0.00 95 1014.6
20260901144547 67 203 0.0 0.0 0.00 0.00 0.00 95 1014.4
20260901143046 67 203 0.0 0.0 0.00 0.00 0.00 94 1014.5
20260901141547 67 203 0.0 0.0 0.00 0.00 0.00 95 1015.2
20260901140037 67 203 0.0 0.0 0.00 0.00 0.00 95 1015.1
20260901134526 66 203 0.0 1.0 0.00 0.00 0.00 95 1014.8
20260901133023 66 211 0.0 0.0 0.00 0.00 0.00 96 1014.9
20260901131526 66 210 0.0 0.0 0.00 0.00 0.00 96 1014.8
20260901130025 66 210 0.0 1.0 0.00 0.00 0.00 96 1015.2
20260901124520 66 211 0.0 0.0 0.00 0.00 0.00 96 1015.7
20260901123019 66 211 0.0 0.0 0.00 0.00 0.00 96 1015.7
20260901121518 66 211 0.0 0.0 0.00 0.00 0.00 96 1015.8
20260901120018 66 211 0.0 0.0 0.00 0.00 0.00 96 1015.8
20260901114518 66 211 0.0 0.0 0.00 0.00 0.00 96 1015.8
20260901113007 66 211 0.0 0.0 0.00 0.00 0.00 96 1015.7
20260901111505 65 211 0.0 0.0 0.00 0.00 0.00 95 1015.8
20260901110004 65 211 0.0 1.0 0.00 0.00 0.00 95 1015.7
20260901104507 66 211 0.0 1.0 0.00 0.00 0.00 95 1015.8
20260901103003 66 211 0.0 0.0 0.00 0.00 0.00 95 1015.3
20260901101504 66 211 0.0 0.0 0.00 0.00 0.00 95 1014.8
20260901100104 66 211 0.0 0.0 0.00 0.00 0.00 94 1015.0
20260901094558 66 211 0.0 0.0 0.00 0.00 0.00 94 1015.3
20260901093045 66 211 0.0 0.0 0.00 0.00 0.00 93 1015.3
20260901091545 67 211 0.0 0.0 0.00 0.00 0.00 92 1015.2
20260901090049 67 211 0.0 0.0 0.00 0.00 0.00 92 1015.1
20260901084549 67 211 0.0 0.0 0.00 0.00 0.00 91 1015.1
20260901083042 66 211 0.0 0.0 0.00 0.00 0.00 91 1015.1
20260901081541 66 211 0.0 0.0 0.00 0.00 0.00 91 1015.3
20260901080040 67 211 0.0 0.0 0.00 0.00 0.00 91 1015.4
20260901074545 67 211 0.0 0.0 0.00 0.00 0.00 91 1015.4
20260901073022 67 211 0.0 0.0 0.00 0.00 0.00 91 1015.6
20260901071522 67 211 0.0 0.0 0.00 0.00 0.00 90 1015.6
20260901070009 67 211 0.0 0.0 0.00 0.00 0.00 90 1015.5
20260901064516 67 211 0.0 0.0 0.00 0.00 0.00 90 1015.5
20260901063006 67 211 0.0 0.0 0.00 0.00 0.00 90 1015.6
20260901061504 67 211 0.0 0.0 0.00 0.00 0.00 90 1016.0
20260901060003 67 211 0.0 0.0 0.00 0.00 0.00 90 1016.0
20260901054502 67 211 0.0 0.0 0.00 0.00 0.00 90 1016.2
20260901053000 67 211 0.0 0.0 0.00 0.00 0.00 90 1016.2
20260901051500 67 211 0.0 0.0 0.00 0.00 0.00 90 1016.3
20260901050052 68 211 0.0 0.0 0.00 0.00 0.00 89 1016.6
20260901044556 68 211 0.0 0.0 0.00 0.00 0.00 89 1016.5
20260901043046 68 211 0.0 0.0 0.00 0.00 0.00 89 1016.6
20260901041545 68 211 0.0 1.0 0.00 0.00 0.00 89 1016.7
20260901040049 68 211 0.0 0.0 0.00 0.00 0.00 88 1016.6
20260901034544 68 211 0.0 0.0 0.00 0.00 0.00 88 1016.2
20260901033055 68 211 0.0 1.0 0.00 0.00 0.00 87 1016.3